Ord, NE

6:20 AM CDT on April 27, 2017 (GMT -0500)
Sharp

Weather History for KODX - July, 2013

Change the Weather History Date:

Thursday, July 4, 2013

  Actual Average Record
Temperature  
Mean Temperature 74 °F 74 °F  
Max Temperature 90 °F 86 °F 101 °F (2012)
Min Temperature 58 °F 61 °F 47 °F (1997)
Degree Days  
Heating Degree Days 0 0  
Month to date heating degree days 1 0  
Since 1 June heating degree days 48 37  
Since 1 July heating degree days 1 0  
Cooling Degree Days 9 9  
Month to date cooling degree days 14 34  
Year to date cooling degree days 227 237  
Since 1 June cooling degree days 180 196  
Growing Degree Days 24 (Base 50)    
Moisture  
Dew Point 53 °F    
Average Humidity 51    
Maximum Humidity 75    
Minimum Humidity 27    
Precipitation  
Precipitation T in 0.09 in 2.51 in (1921)
Month to date precipitation T 0.40  
Year to date precipitation 12.07 13.18  
Sea Level Pressure  
Sea Level Pressure 29.86 in    
Wind  
Wind Speed 10 mph (SSE)    
Max Wind Speed 20 mph    
Max Gust Speed 26 mph    
Visibility 10 miles    
Events Thunderstorm    
T = Trace of Precipitation, MM = Missing Value Source: NWS Daily Summary

Daily Weather History Graph

Daily Weather History Graph

Search for Another Location

Airport or City:

Trip Planner

Search our weather history database for the weather conditions in past years. The results will help you decide how hot, cold, wet, or windy it might be!

Date:

Astronomy

Jul. 04, 2013 Rise Set
Actual Time 6:07 AM CDT 9:13 PM CDT
Civil Twilight 5:33 AM CDT 9:46 PM CDT
Nautical Twilight 4:50 AM CDT 10:30 PM CDT
Astronomical Twilight 3:58 AM CDT 11:21 PM CDT
Moon 3:26 AM CDT (7/4) 6:18 PM CDT (7/4)
Length of Visible Light 16h 13m
Length of Day
15h 06m
Waning Crescent, 11% of the Moon is Illuminated
Jul 4
Waning Crescent
Jul 8
New
Jul 15
First Quarter
Jul 22
Full
Jul 29
Last Quarter

Hourly Weather History & Observations

Time (CDT) Temp. Heat Index Dew Point Humidity Pressure Visibility Wind Dir Wind Speed Gust Speed Precip Events Conditions
12:53 AM 63.0 °F - 52.0 °F 67% 29.93 in 10.0 mi SSW 8.1 mph - N/A   Clear
1:53 AM 64.9 °F - 50.0 °F 58% 29.92 in 10.0 mi SSE 4.6 mph - N/A   Clear
2:53 AM 59.0 °F - 51.1 °F 75% 29.92 in 10.0 mi Calm Calm - N/A   Partly Cloudy
3:53 AM 63.0 °F - 50.0 °F 63% 29.91 in 10.0 mi SSE 4.6 mph - N/A   Partly Cloudy
4:53 AM 64.0 °F - 50.0 °F 60% 29.91 in 10.0 mi South 3.5 mph - N/A   Mostly Cloudy
5:53 AM 63.0 °F - 48.9 °F 60% 29.91 in 10.0 mi SSE 4.6 mph - N/A   Scattered Clouds
6:53 AM 62.1 °F - 50.0 °F 65% 29.91 in 10.0 mi SE 6.9 mph - N/A   Scattered Clouds
7:53 AM 64.0 °F - 52.0 °F 65% 29.91 in 10.0 mi SSE 4.6 mph - N/A   Partly Cloudy
8:53 AM 69.1 °F - 52.0 °F 54% 29.91 in 10.0 mi South 12.7 mph 20.7 mph N/A   Clear
9:53 AM 72.0 °F - 53.1 °F 51% 29.90 in 10.0 mi South 11.5 mph - N/A   Clear
10:53 AM 75.9 °F - 55.0 °F 48% 29.89 in 10.0 mi South 9.2 mph - N/A   Clear
11:53 AM 80.1 °F 80.1 °F 55.0 °F 42% 29.87 in 10.0 mi South 13.8 mph - N/A   Clear
12:53 PM 82.9 °F 82.0 °F 55.0 °F 38% 29.87 in 10.0 mi South 12.7 mph 21.9 mph N/A   Clear
1:53 PM 86.0 °F 84.7 °F 55.9 °F 36% 29.86 in 10.0 mi South 15.0 mph 24.2 mph N/A   Clear
2:53 PM 87.1 °F 85.7 °F 55.9 °F 35% 29.85 in 10.0 mi South 17.3 mph 21.9 mph N/A   Clear
3:53 PM 89.1 °F 87.1 °F 55.0 °F 31% 29.83 in 10.0 mi South 11.5 mph 20.7 mph N/A   Clear
4:53 PM 90.0 °F - 52.0 °F 27% 29.82 in 10.0 mi South 13.8 mph 21.9 mph N/A   Clear
5:53 PM 88.0 °F - 50.0 °F 27% 29.81 in 10.0 mi South 15.0 mph 23.0 mph N/A   Clear
6:53 PM 88.0 °F - 51.1 °F 28% 29.79 in 10.0 mi SSE 12.7 mph - N/A   Clear
7:53 PM 84.0 °F - 51.1 °F 32% 29.79 in 10.0 mi SSE 10.4 mph - N/A   Clear
8:53 PM 81.0 °F 80.5 °F 54.0 °F 39% 29.79 in 10.0 mi SE 11.5 mph - N/A   Clear
9:23 PM 80.6 °F 80.3 °F 53.6 °F 39% 29.83 in 10.0 mi SSE 9.2 mph - N/A Thunderstorm Clear
9:38 PM 78.8 °F - 53.6 °F 42% 29.84 in 10.0 mi SE 4.6 mph 16.1 mph N/A   Clear
9:53 PM 78.1 °F - 54.0 °F 43% 29.83 in 10.0 mi East 4.6 mph - N/A   Partly Cloudy
10:53 PM 75.9 °F - 54.0 °F 46% 29.83 in 10.0 mi SE 9.2 mph - 0.00 in   Clear
11:53 PM 75.0 °F - 54.0 °F 48% 29.82 in 10.0 mi South 11.5 mph - N/A   Clear